Location: Hamayl? Da??
(36.7028°N, 30.1716°E)
Time: 07:46:37
(UTC+00:00)

Lacrosse 5 - Pass Details

Date: 04 August 2024
Orbit: 714 x 724 km, 57.0° (Epoch: 09 March)

Event Time Altitude Azimuth Distance (km) Brightness Sun altitude
Rises 19:06:16 0° 320° (NW) 3,119 6.7 -21.7°
Reaches altitude 10° 19:08:40 10° 322° (NW) 2,197 5.5 -22.1°
Maximum altitude 19:13:43 73° 47° (NE) 748 1.8 -22.8°
Enters shadow 19:14:31 60° 106° (ESE) 817 1.8 -22.9°
